START_TIME,STEP,MOV.,H8,t_acc.,H43,t_acc.,M25,t_acc.,H9,t_acc.
1979-08-01 12:00:28.390 ,0,0,0.,12.0,0.,12.0,0.,12.0,0.,12.0
1979-08-01 12:00:40.390 ,0,0,0.,12.0,0.,12.0,0.,12.0,0.,12.0
1979-08-01 12:01:40.390 ,0,0,0.,12.0,0.,12.0,0.,12.0,0.,12.0
1979-08-01 12:01:52.390 ,0,0,0.,12.0,0.,12.0,0.,12.0,0.,12.0
1979-08-01 12:02:04.390 ,0,0,0.,12.0,0.,12.0,0.,12.0,0.,12.0
1979-08-01 12:02:16.390 ,0,0,0.,12.0,0.,12.0,0.,12.0,0.,12.0
1979-08-01 12:02:28.390 ,3,0,0.,12.0,0.,12.0,0.,12.0,0.,12.0
1979-08-01 12:02:40.390 ,3,0,0.,12.0,0.,12.0,0.,12.0,0.,12.0
1979-08-01 12:02:52.390 ,3,0,0.,12.0,0.,12.0,0.,12.0,0.,12.0
1979-08-01 12:03:04.390 ,3,0,0.,12.0,0.,12.0,0.,12.0,0.,12.0
1979-08-01 12:03:16.390 ,4,0,0.,12.0,0.,12.0,0.,12.0,0.,12.0
1979-08-01 12:03:28.390 ,4,0,0.,12.0,0.,12.0,0.,12.0,0.,12.0
1979-08-01 12:03:40.390 ,4,0,0.,12.0,0.,12.0,0.,12.0,0.,12.0
1979-08-01 12:03:52.390 ,4,0,0.,12.0,0.,12.0,0.,12.0,0.,12.0
1979-08-01 12:04:04.390 ,5,0,0.,12.0,0.,12.0,0.,12.0,0.,12.0
1979-08-01 12:04:16.390 ,5,0,0.,12.0,0.,12.0,0.,12.0,0.,12.0
1979-08-01 12:04:28.390 ,5,0,0.,12.0,0.,12.0,0.,12.0,0.,12.0
1979-08-01 12:04:40.390 ,5,0,0.,12.0,0.,12.0,0.,12.0,0.,12.0
1979-08-01 12:04:52.390 ,6,0,0.,12.0,0.,12.0,0.,12.0,0.,12.0
1979-08-01 12:05:04.390 ,6,0,0.,12.0,0.,12.0,0.,12.0,0.,12.0
1979-08-01 12:05:16.390 ,6,0,0.,12.0,0.,12.0,0.,12.0,0.,12.0
1979-08-01 12:05:28.390 ,6,0,0.,12.0,0.,12.0,0.,12.0,0.,12.0
1979-08-01 12:05:40.390 ,7,0,0.,12.0,0.,12.0,0.,12.0,0.,12.0
1979-08-01 12:05:52.390 ,7,0,0.,12.0,0.,12.0,0.,12.0,0.,12.0
1979-08-01 12:06:04.390 ,7,0,0.,12.0,0.,12.0,0.,12.0,0.,12.0
1979-08-01 12:06:16.390 ,7,0,0.,12.0,0.,12.0,0.,12.0,0.,12.0
1979-08-01 12:07:16.390 ,0,0,0.,12.0,0.,12.0,0.,12.0,0.,12.0
1979-08-01 12:07:28.390 ,0,0,0.,12.0,0.,12.0,0.,12.0,0.,12.0
1979-08-01 12:07:40.390 ,0,0,0.,12.0,0.,12.0,0.,12.0,0.,12.0
1979-08-01 12:07:52.390 ,0,0,0.,12.0,0.,12.0,0.,12.0,0.,12.0
1979-08-01 12:08:04.390 ,5,0,0.,12.0,0.,12.0,0.,12.0,0.,12.0
1979-08-01 12:08:16.390 ,5,0,0.,12.0,0.,12.0,0.,12.0,0.,12.0
1979-08-01 12:08:28.390 ,5,0,0.,12.0,0.,12.0,0.,12.0,0.,12.0
1979-08-01 12:08:40.390 ,5,0,0.,12.0,0.,12.0,0.,12.0,0.,12.0
1979-08-01 12:08:52.390 ,4,0,0.,12.0,0.,12.0,0.,12.0,0.,12.0
1979-08-01 12:09:04.390 ,4,0,0.,12.0,0.,12.0,0.,12.0,0.,12.0
1979-08-01 12:09:16.390 ,4,0,0.,12.0,0.,12.0,0.,12.0,0.,12.0
1979-08-01 12:09:28.390 ,4,0,0.,12.0,0.,12.0,0.,12.0,0.,12.0
1979-08-01 12:09:40.390 ,3,0,0.,12.0,0.,12.0,0.,12.0,0.,12.0
1979-08-01 12:09:52.390 ,3,0,0.,12.0,0.,12.0,0.,12.0,0.,12.0
1979-08-01 12:10:04.390 ,3,0,0.,12.0,0.,12.0,0.,12.0,0.,12.0
1979-08-01 12:10:16.390 ,3,0,0.,12.0,0.,12.0,0.,12.0,0.,12.0
1979-08-01 12:10:28.390 ,2,0,0.,12.0,0.,12.0,0.,12.0,0.,12.0
1979-08-01 12:10:40.390 ,2,0,0.,12.0,0.,12.0,0.,12.0,0.,12.0
1979-08-01 12:10:52.390 ,2,0,0.,12.0,0.,12.0,0.,12.0,0.,12.0
1979-08-01 12:11:04.390 ,2,0,0.,12.0,0.,12.0,0.,12.0,0.,12.0
1979-08-01 12:11:16.390 ,0,0,0.,12.0,0.,12.0,0.,12.0,0.,12.0
1979-08-01 12:11:28.390 ,0,0,0.,12.0,0.,12.0,0.,12.0,0.,12.0
1979-08-01 12:11:40.390 ,0,0,0.,12.0,0.,12.0,0.,12.0,0.,12.0
1979-08-01 12:11:52.390 ,0,0,0.,12.0,0.,12.0,0.,12.0,0.,12.0
1979-08-01 12:12:04.390 ,0,0,0.,12.0,0.,12.0,0.,12.0,0.,12.0
1979-08-01 12:12:16.390 ,0,0,0.,12.0,0.,12.0,0.,12.0,0.,12.0
1979-08-01 12:12:28.390 ,0,0,0.,12.0,0.,12.0,0.,12.0,0.,12.0
1979-08-01 12:12:40.390 ,0,0,0.,12.0,0.,12.0,0.,12.0,0.,12.0
1979-08-01 12:12:52.390 ,0,0,0.,12.0,0.,12.0,0.,12.0,0.,12.0
1979-08-01 12:13:04.390 ,0,0,0.,12.0,0.,12.0,0.,12.0,0.,12.0
1979-08-01 12:13:16.390 ,0,0,0.,12.0,0.,12.0,0.,12.0,0.,12.0
1979-08-01 12:13:28.390 ,0,0,0.,12.0,0.,12.0,0.,12.0,0.,12.0
1979-08-01 12:13:40.390 ,1,0,0.,12.0,0.,12.0,0.,12.0,0.,12.0
1979-08-01 12:13:52.390 ,1,0,0.,12.0,0.,12.0,0.,12.0,0.,12.0
1979-08-01 12:14:04.390 ,1,0,0.,12.0,0.,12.0,0.,12.0,0.,12.0
1979-08-01 12:14:16.390 ,1,0,0.,12.0,0.,12.0,0.,12.0,0.,12.0
1979-08-01 12:14:28.390 ,2,0,0.,12.0,0.,12.0,0.,12.0,0.,12.0
1979-08-01 12:14:40.390 ,2,0,0.,12.0,0.,12.0,0.,12.0,0.,12.0
1979-08-01 12:14:52.390 ,2,0,0.,12.0,0.,12.0,0.,12.0,0.,12.0
1979-08-01 12:15:04.390 ,2,0,0.,12.0,0.,12.0,0.,12.0,0.,12.0
1979-08-01 12:15:16.390 ,3,0,0.,12.0,0.,12.0,0.,12.0,0.,12.0
1979-08-01 12:15:28.390 ,3,0,0.,12.0,0.,12.0,0.,12.0,0.,12.0
1979-08-01 12:15:40.390 ,3,0,0.,12.0,0.,12.0,0.,12.0,0.,12.0
1979-08-01 12:15:52.390 ,3,0,0.,12.0,0.,12.0,0.,12.0,0.,12.0
1979-08-01 12:16:04.390 ,4,0,0.,12.0,0.,12.0,0.,12.0,0.,12.0
1979-08-01 12:16:16.390 ,4,0,0.,12.0,0.,12.0,0.,12.0,0.,12.0
1979-08-01 12:16:28.390 ,4,0,0.,12.0,0.,12.0,0.,12.0,0.,12.0
1979-08-01 12:16:40.390 ,4,0,0.,12.0,0.,12.0,0.,12.0,0.,12.0
1979-08-01 12:16:52.390 ,5,0,0.,12.0,0.,12.0,0.,12.0,0.,12.0
1979-08-01 12:17:04.390 ,5,0,0.,12.0,0.,12.0,0.,12.0,0.,12.0
1979-08-01 12:17:16.390 ,5,0,0.,12.0,0.,12.0,0.,12.0,0.,12.0
1979-08-01 12:17:28.390 ,5,0,0.,12.0,0.,12.0,0.,12.0,0.,12.0
1979-08-01 12:17:40.390 ,6,0,0.,12.0,0.,12.0,0.,12.0,0.,12.0
1979-08-01 12:17:52.390 ,6,0,0.,12.0,0.,12.0,0.,12.0,0.,12.0
1979-08-01 12:18:04.390 ,6,0,0.,12.0,0.,12.0,0.,12.0,0.,12.0
1979-08-01 12:18:16.390 ,6,0,0.,12.0,0.,12.0,0.,12.0,0.,12.0
1979-08-01 12:18:28.390 ,0,0,200704.,12.0,41.,12.0,0.,12.0,0.,12.0
1979-08-01 12:18:40.390 ,0,0,0.,12.0,0.,12.0,1.,12.0,0.,12.0
1979-08-01 12:18:52.390 ,0,0,0.,12.0,2.,12.0,1.,12.0,0.,12.0
1979-08-01 12:19:04.390 ,0,0,0.,12.0,0.,12.0,0.,12.0,0.,12.0
1979-08-01 12:19:16.390 ,0,0,0.,12.0,0.,12.0,0.,12.0,0.,12.0
1979-08-01 12:19:28.390 ,0,0,0.,12.0,0.,12.0,0.,12.0,0.,12.0
1979-08-01 12:19:40.390 ,0,1,0.,12.0,0.,12.0,0.,12.0,0.,12.0
1979-08-01 12:19:52.390 ,0,1,0.,12.0,0.,12.0,0.,12.0,0.,12.0
1979-08-01 12:20:04.390 ,4,1,0.,12.0,0.,12.0,0.,12.0,0.,12.0
1979-08-01 12:20:16.390 ,4,1,0.,12.0,0.,12.0,0.,12.0,0.,12.0
1979-08-01 12:20:28.390 ,7,1,0.,12.0,0.,12.0,0.,12.0,0.,12.0
1979-08-01 12:20:40.390 ,7,1,0.,12.0,0.,12.0,0.,12.0,0.,12.0
1979-08-01 12:20:52.390 ,3,1,0.,12.0,0.,12.0,0.,12.0,0.,12.0
1979-08-01 12:21:04.390 ,3,1,0.,12.0,0.,12.0,0.,12.0,0.,12.0
1979-08-01 12:21:16.390 ,0,1,0.,12.0,0.,12.0,0.,12.0,0.,12.0
1979-08-01 12:21:28.390 ,0,1,0.,12.0,0.,12.0,0.,12.0,0.,12.0
1979-08-01 12:21:40.390 ,4,1,0.,12.0,0.,12.0,0.,12.0,0.,12.0
1979-08-01 12:21:52.390 ,4,1,0.,12.0,0.,12.0,0.,12.0,0.,12.0
1979-08-01 12:22:04.390 ,0,0,0.,12.0,0.,12.0,0.,12.0,0.,12.0
1979-08-01 12:22:16.390 ,0,0,0.,12.0,0.,12.0,0.,12.0,0.,12.0
1979-08-01 12:22:28.390 ,3,1,0.,12.0,0.,12.0,0.,12.0,0.,12.0
1979-08-01 12:22:40.390 ,3,1,0.,12.0,0.,12.0,0.,12.0,0.,12.0
1979-08-01 12:22:52.390 ,0,1,0.,12.0,0.,12.0,0.,12.0,0.,12.0
1979-08-01 12:23:04.390 ,0,1,0.,12.0,0.,12.0,0.,12.0,0.,12.0
1979-08-01 12:23:16.390 ,4,1,0.,12.0,0.,12.0,0.,12.0,0.,12.0
1979-08-01 12:23:28.390 ,4,1,0.,12.0,0.,12.0,0.,12.0,0.,12.0
1979-08-01 12:23:40.390 ,7,1,0.,12.0,0.,12.0,0.,12.0,0.,12.0
1979-08-01 12:23:52.390 ,7,1,0.,12.0,0.,12.0,0.,12.0,0.,12.0
1979-08-01 12:24:04.390 ,3,1,0.,12.0,0.,12.0,0.,12.0,0.,12.0
1979-08-01 12:24:16.390 ,3,1,0.,12.0,0.,12.0,0.,12.0,0.,12.0
1979-08-01 12:24:28.390 ,0,1,0.,12.0,0.,12.0,0.,12.0,0.,12.0
1979-08-01 12:24:40.390 ,0,1,0.,12.0,0.,12.0,0.,12.0,0.,12.0
1979-08-01 12:24:52.390 ,4,1,,0,,0,,0,,0
1979-08-01 12:25:04.390 ,4,1,0.,12.0,0.,12.0,0.,12.0,0.,12.0
1979-08-01 12:25:16.390 ,7,1,0.,12.0,0.,12.0,0.,12.0,0.,12.0
1979-08-01 12:25:28.390 ,7,1,0.,12.0,0.,12.0,0.,12.0,0.,12.0
1979-08-01 12:25:40.390 ,3,1,0.,12.0,0.,12.0,0.,12.0,0.,12.0
1979-08-01 12:25:52.390 ,3,1,0.,12.0,0.,12.0,0.,12.0,0.,12.0
1979-08-01 12:26:04.390 ,0,1,0.,12.0,0.,12.0,0.,12.0,0.,12.0
1979-08-01 12:26:16.390 ,0,1,0.,12.0,0.,12.0,0.,12.0,0.,12.0
1979-08-01 12:27:16.390 ,0,0,0.,12.0,0.,12.0,0.,12.0,0.,12.0
1979-08-01 12:27:28.390 ,0,0,0.,12.0,0.,12.0,0.,12.0,0.,12.0
1979-08-01 12:27:40.390 ,0,1,0.,12.0,0.,12.0,0.,12.0,0.,12.0
1979-08-01 12:27:52.390 ,0,1,0.,12.0,0.,12.0,0.,12.0,0.,12.0
1979-08-01 12:28:04.390 ,4,1,0.,12.0,0.,12.0,0.,12.0,0.,12.0
1979-08-01 12:28:16.390 ,4,1,0.,12.0,0.,12.0,0.,12.0,0.,12.0
1979-08-01 12:28:28.390 ,7,1,0.,12.0,0.,12.0,0.,12.0,0.,12.0
1979-08-01 12:28:40.390 ,7,1,0.,12.0,0.,12.0,0.,12.0,0.,12.0
1979-08-01 12:28:52.390 ,3,1,0.,12.0,0.,12.0,0.,12.0,0.,12.0
1979-08-01 12:29:04.390 ,3,1,0.,12.0,0.,12.0,0.,12.0,0.,12.0
1979-08-01 12:29:16.390 ,0,1,0.,12.0,0.,12.0,0.,12.0,0.,12.0
1979-08-01 12:29:28.390 ,0,1,0.,12.0,0.,12.0,0.,12.0,0.,12.0
1979-08-01 12:29:40.390 ,0,0,0.,12.0,0.,12.0,0.,12.0,0.,12.0
1979-08-01 12:29:52.390 ,0,0,0.,12.0,0.,12.0,0.,12.0,0.,12.0
1979-08-01 12:30:04.390 ,0,0,0.,12.0,0.,12.0,0.,12.0,0.,12.0
1979-08-01 12:30:16.390 ,0,0,0.,12.0,0.,12.0,0.,12.0,0.,12.0
1979-08-01 12:30:28.390 ,5,0,0.,12.0,0.,12.0,0.,12.0,0.,12.0
1979-08-01 12:30:40.390 ,5,0,0.,12.0,0.,12.0,0.,12.0,0.,12.0
1979-08-01 12:30:52.390 ,5,0,0.,12.0,0.,12.0,0.,12.0,0.,12.0
1979-08-01 12:31:04.390 ,5,0,0.,12.0,0.,12.0,0.,12.0,0.,12.0
1979-08-01 12:31:16.390 ,4,0,0.,12.0,0.,12.0,0.,12.0,0.,12.0
1979-08-01 12:31:28.390 ,4,0,0.,12.0,0.,12.0,0.,12.0,0.,12.0
1979-08-01 12:31:40.390 ,4,0,0.,12.0,0.,12.0,0.,12.0,0.,12.0
1979-08-01 12:31:52.390 ,4,0,0.,12.0,0.,12.0,0.,12.0,0.,12.0
1979-08-01 12:32:04.390 ,3,0,0.,12.0,0.,12.0,0.,12.0,0.,12.0
1979-08-01 12:32:16.390 ,3,0,0.,12.0,0.,12.0,0.,12.0,0.,12.0
1979-08-01 12:32:28.390 ,3,0,0.,12.0,0.,12.0,0.,12.0,0.,12.0
1979-08-01 12:32:40.390 ,3,0,0.,12.0,0.,12.0,0.,12.0,0.,12.0
1979-08-01 12:32:52.390 ,2,0,0.,12.0,0.,12.0,0.,12.0,0.,12.0
1979-08-01 12:33:04.390 ,2,0,0.,12.0,0.,12.0,0.,12.0,0.,12.0
1979-08-01 12:33:16.390 ,0,0,0.,12.0,0.,12.0,0.,12.0,0.,12.0
1979-08-01 12:33:28.390 ,0,0,,0,,0,,0,,0
1979-08-01 12:33:46.390 ,0,0,0.,12.0,0.,12.0,0.,12.0,0.,12.0
1979-08-01 12:33:58.390 ,0,0,0.,12.0,0.,12.0,0.,12.0,0.,12.0
1979-08-01 12:34:04.390 ,0,0,0.,12.0,0.,12.0,0.,12.0,0.,12.0
1979-08-01 12:34:16.390 ,0,0,0.,12.0,0.,12.0,0.,12.0,0.,12.0
1979-08-01 12:34:28.390 ,0,0,0.,12.0,0.,12.0,0.,12.0,0.,12.0
1979-08-01 12:34:40.390 ,0,0,0.,12.0,0.,12.0,0.,12.0,0.,12.0
1979-08-01 12:34:52.390 ,0,0,0.,12.0,0.,12.0,0.,12.0,0.,12.0
1979-08-01 12:35:04.390 ,0,0,0.,12.0,0.,12.0,0.,12.0,0.,12.0
1979-08-01 12:35:16.390 ,0,0,0.,12.0,0.,12.0,0.,12.0,0.,12.0
1979-08-01 12:35:28.390 ,0,0,0.,12.0,0.,12.0,0.,12.0,0.,12.0
1979-08-01 12:35:40.390 ,0,0,0.,12.0,0.,12.0,0.,12.0,0.,12.0
1979-08-01 12:35:52.390 ,0,0,0.,12.0,0.,12.0,0.,12.0,0.,12.0
1979-08-01 12:36:04.390 ,1,0,0.,12.0,0.,12.0,0.,12.0,0.,12.0
1979-08-01 12:36:16.390 ,1,0,0.,12.0,0.,12.0,0.,12.0,0.,12.0
1979-08-01 12:36:28.390 ,1,0,0.,12.0,0.,12.0,0.,12.0,0.,12.0
1979-08-01 12:36:40.390 ,1,0,0.,12.0,0.,12.0,0.,12.0,0.,12.0
1979-08-01 12:36:52.390 ,2,0,0.,12.0,0.,12.0,0.,12.0,0.,12.0
1979-08-01 12:37:04.390 ,2,0,0.,12.0,0.,12.0,0.,12.0,0.,12.0
1979-08-01 12:37:16.390 ,2,0,0.,12.0,0.,12.0,0.,12.0,0.,12.0
1979-08-01 12:37:28.390 ,2,0,0.,12.0,0.,12.0,0.,12.0,0.,12.0
1979-08-01 12:37:40.390 ,3,1,0.,12.0,0.,12.0,0.,12.0,0.,12.0
1979-08-01 12:37:52.390 ,3,1,,0,,0,,0,,0
1979-08-01 12:38:04.390 ,3,0,0.,12.0,0.,12.0,0.,12.0,0.,12.0
1979-08-01 12:38:16.390 ,3,0,0.,12.0,0.,12.0,0.,12.0,0.,12.0
1979-08-01 12:38:28.390 ,4,0,0.,12.0,0.,12.0,0.,12.0,0.,12.0
1979-08-01 12:38:40.390 ,4,0,0.,12.0,0.,12.0,0.,12.0,0.,12.0
1979-08-01 12:38:52.390 ,4,0,2.,12.0,0.,12.0,1.,12.0,1.,12.0
1979-08-01 12:39:04.390 ,4,0,1.,12.0,0.,12.0,1.,12.0,0.,12.0
1979-08-01 12:39:16.390 ,5,0,0.,12.0,0.,12.0,0.,12.0,0.,12.0
1979-08-01 12:39:28.390 ,5,0,0.,12.0,0.,12.0,0.,12.0,0.,12.0
1979-08-01 12:39:40.390 ,5,0,0.,12.0,0.,12.0,0.,12.0,0.,12.0
1979-08-01 12:39:52.390 ,5,0,0.,12.0,0.,12.0,0.,12.0,0.,12.0
1979-08-01 12:40:04.390 ,6,0,0.,12.0,0.,12.0,0.,12.0,0.,12.0
1979-08-01 12:40:16.390 ,6,0,0.,12.0,0.,12.0,0.,12.0,0.,12.0
1979-08-01 12:40:28.390 ,6,0,0.,12.0,0.,12.0,0.,12.0,0.,12.0
1979-08-01 12:40:40.390 ,6,0,0.,12.0,0.,12.0,0.,12.0,0.,12.0
1979-08-01 12:40:52.390 ,7,0,0.,12.0,0.,12.0,0.,12.0,0.,12.0
1979-08-01 12:41:04.390 ,7,0,0.,12.0,0.,12.0,0.,12.0,0.,12.0
1979-08-01 12:41:16.390 ,7,0,0.,12.0,0.,12.0,0.,12.0,0.,12.0
1979-08-01 12:41:28.390 ,7,0,0.,12.0,0.,12.0,0.,12.0,0.,12.0
1979-08-01 12:41:40.390 ,7,0,0.,12.0,0.,12.0,0.,12.0,0.,12.0
1979-08-01 12:41:52.390 ,7,0,0.,12.0,0.,12.0,0.,12.0,0.,12.0
1979-08-01 12:42:04.390 ,7,0,0.,12.0,0.,12.0,0.,12.0,0.,12.0
1979-08-01 12:42:16.390 ,7,0,0.,12.0,0.,12.0,0.,12.0,0.,12.0
1979-08-01 12:42:28.390 ,6,0,0.,12.0,0.,12.0,0.,12.0,0.,12.0
1979-08-01 12:42:40.390 ,6,0,0.,12.0,0.,12.0,0.,12.0,0.,12.0
1979-08-01 12:42:52.390 ,6,0,1.,12.0,0.,12.0,0.,12.0,0.,12.0
1979-08-01 12:43:04.390 ,6,0,0.,12.0,0.,12.0,0.,12.0,0.,12.0
1979-08-01 12:55:16.390 ,0,0,0.,12.0,0.,12.0,0.,12.0,0.,12.0
1979-08-01 12:55:28.390 ,0,0,0.,12.0,0.,12.0,0.,12.0,0.,12.0
1979-08-01 12:55:40.390 ,0,0,0.,12.0,0.,12.0,0.,12.0,0.,12.0
1979-08-01 12:55:52.390 ,0,0,0.,12.0,0.,12.0,0.,12.0,0.,12.0
1979-08-01 12:56:04.390 ,5,0,0.,12.0,0.,12.0,0.,12.0,0.,12.0
1979-08-01 12:56:16.390 ,5,0,0.,12.0,0.,12.0,0.,12.0,0.,12.0
1979-08-01 12:56:28.390 ,5,0,0.,12.0,0.,12.0,0.,12.0,0.,12.0
1979-08-01 12:56:40.390 ,5,0,0.,12.0,0.,12.0,0.,12.0,0.,12.0
1979-08-01 12:56:52.390 ,4,0,0.,12.0,0.,12.0,0.,12.0,0.,12.0
1979-08-01 12:57:04.390 ,4,0,0.,12.0,0.,12.0,0.,12.0,0.,12.0
1979-08-01 12:57:16.390 ,4,0,0.,12.0,0.,12.0,0.,12.0,0.,12.0
1979-08-01 12:57:28.390 ,4,0,0.,12.0,0.,12.0,0.,12.0,0.,12.0
1979-08-01 12:57:40.390 ,3,0,0.,12.0,0.,12.0,0.,12.0,0.,12.0
1979-08-01 12:57:52.390 ,3,0,0.,12.0,0.,12.0,0.,12.0,0.,12.0
1979-08-01 12:58:04.390 ,3,0,0.,12.0,0.,12.0,0.,12.0,0.,12.0
1979-08-01 12:58:16.390 ,3,0,0.,12.0,0.,12.0,0.,12.0,0.,12.0
1979-08-01 12:59:16.390 ,0,0,0.,12.0,0.,12.0,0.,12.0,0.,12.0
1979-08-01 12:59:28.390 ,0,0,0.,12.0,0.,12.0,0.,12.0,0.,12.0
1979-08-01 12:59:40.390 ,0,0,0.,12.0,0.,12.0,0.,12.0,0.,12.0
1979-08-01 12:59:52.390 ,0,0,0.,12.0,0.,12.0,0.,12.0,0.,12.0
1979-08-01 13:00:04.390 ,0,0,0.,12.0,0.,12.0,0.,12.0,0.,12.0
1979-08-01 13:00:16.390 ,0,0,0.,12.0,0.,12.0,0.,12.0,0.,12.0
1979-08-01 13:00:28.390 ,0,0,0.,12.0,0.,12.0,0.,12.0,0.,12.0
1979-08-01 13:00:40.390 ,0,0,0.,12.0,0.,12.0,0.,12.0,0.,12.0
1979-08-01 13:00:52.390 ,0,0,0.,12.0,0.,12.0,0.,12.0,0.,12.0
1979-08-01 13:01:04.390 ,0,0,0.,12.0,0.,12.0,0.,12.0,0.,12.0
1979-08-01 13:01:16.390 ,0,0,0.,12.0,0.,12.0,0.,12.0,0.,12.0
1979-08-01 13:01:28.390 ,0,0,0.,12.0,0.,12.0,0.,12.0,0.,12.0
1979-08-01 13:01:40.390 ,1,0,0.,12.0,0.,12.0,0.,12.0,0.,12.0
1979-08-01 13:01:52.390 ,1,0,0.,12.0,0.,12.0,0.,12.0,0.,12.0
1979-08-01 13:02:04.390 ,1,0,0.,12.0,0.,12.0,0.,12.0,0.,12.0
1979-08-01 13:02:16.390 ,1,0,0.,12.0,0.,12.0,0.,12.0,0.,12.0
1979-08-01 13:02:28.390 ,2,0,0.,12.0,0.,12.0,0.,12.0,0.,12.0
1979-08-01 13:02:40.390 ,2,0,0.,12.0,0.,12.0,0.,12.0,0.,12.0
1979-08-01 13:02:52.390 ,2,0,0.,12.0,0.,12.0,0.,12.0,0.,12.0
1979-08-01 13:03:04.390 ,2,0,0.,12.0,0.,12.0,0.,12.0,0.,12.0
1979-08-01 13:03:16.390 ,0,0,0.,12.0,0.,12.0,0.,12.0,0.,12.0
1979-08-01 13:03:28.390 ,0,0,0.,12.0,0.,12.0,0.,12.0,0.,12.0
1979-08-01 13:03:40.390 ,0,0,0.,12.0,0.,12.0,0.,12.0,0.,12.0
1979-08-01 13:03:52.390 ,0,0,0.,12.0,0.,12.0,0.,12.0,0.,12.0
1979-08-01 13:04:04.390 ,4,0,0.,12.0,0.,12.0,0.,12.0,0.,12.0
1979-08-01 13:04:16.390 ,4,0,0.,12.0,0.,12.0,0.,12.0,0.,12.0
1979-08-01 13:04:28.390 ,4,0,0.,12.0,0.,12.0,0.,12.0,0.,12.0
1979-08-01 13:04:40.390 ,4,0,0.,12.0,0.,12.0,0.,12.0,0.,12.0
1979-08-01 13:04:52.390 ,5,0,0.,12.0,0.,12.0,0.,12.0,0.,12.0
1979-08-01 13:05:04.390 ,5,0,0.,12.0,0.,12.0,0.,12.0,0.,12.0
1979-08-01 13:05:16.390 ,5,0,0.,12.0,0.,12.0,0.,12.0,0.,12.0
1979-08-01 13:05:28.390 ,5,0,0.,12.0,0.,12.0,0.,12.0,0.,12.0
1979-08-01 13:05:40.390 ,0,0,0.,12.0,0.,12.0,0.,12.0,0.,12.0
1979-08-01 13:05:52.390 ,0,0,,0,,0,,0,,0
1979-08-01 13:06:04.390 ,0,0,,0,,0,,0,,0
1979-08-01 13:06:16.390 ,0,0,0.,12.0,0.,12.0,0.,12.0,0.,12.0
1979-08-01 13:06:28.390 ,7,0,0.,12.0,0.,12.0,0.,12.0,0.,12.0
1979-08-01 13:06:40.390 ,7,0,0.,12.0,0.,12.0,0.,12.0,0.,12.0
1979-08-01 13:06:52.390 ,7,0,0.,12.0,0.,12.0,0.,12.0,0.,12.0
1979-08-01 13:07:04.390 ,7,0,0.,12.0,0.,12.0,0.,12.0,0.,12.0
1979-08-01 13:07:16.390 ,3,1,0.,12.0,0.,12.0,0.,12.0,0.,12.0
1979-08-01 13:07:28.390 ,3,1,0.,12.0,0.,12.0,0.,12.0,0.,12.0
1979-08-01 13:07:40.390 ,0,1,0.,12.0,0.,12.0,0.,12.0,0.,12.0
1979-08-01 13:07:52.390 ,0,1,0.,12.0,0.,12.0,0.,12.0,0.,12.0
1979-08-01 13:09:52.390 ,0,0,,0,,0,,0,,0
1979-08-01 13:10:04.390 ,0,0,0.,12.0,0.,12.0,0.,12.0,0.,12.0
1979-08-01 13:10:04.390 ,6,1,0.,12.0,0.,12.0,0.,12.0,0.,12.0
1979-08-01 13:10:16.390 ,6,1,,0,,0,,0,,0
1979-08-01 13:10:28.390 ,4,1,,0,,0,,0,,0
1979-08-01 13:10:40.390 ,4,1,,0,,0,,0,,0
1979-08-01 13:10:52.390 ,2,1,,0,,0,,0,,0
1979-08-01 13:11:04.390 ,2,1,,0,,0,,0,,0
1979-08-01 13:11:16.390 ,4,1,0.,12.0,0.,12.0,0.,12.0,0.,12.0
1979-08-01 13:11:28.390 ,4,1,0.,12.0,0.,12.0,0.,12.0,0.,12.0
1979-08-01 13:11:40.390 ,0,0,0.,12.0,0.,12.0,0.,12.0,0.,12.0
1979-08-01 13:11:52.390 ,0,0,0.,12.0,0.,12.0,0.,12.0,0.,12.0
1979-08-01 13:12:05.590 ,3,1,0.,12.0,0.,12.0,0.,12.0,0.,12.0
1979-08-01 13:12:17.590 ,3,1,0.,12.0,0.,12.0,0.,12.0,0.,12.0
1979-08-01 13:12:28.390 ,0,1,0.,12.0,0.,12.0,0.,12.0,0.,12.0
1979-08-01 13:12:40.390 ,0,1,0.,12.0,0.,12.0,0.,12.0,0.,12.0
1979-08-01 13:12:52.390 ,4,1,0.,12.0,0.,12.0,0.,12.0,0.,12.0
1979-08-01 13:13:04.390 ,4,1,0.,12.0,0.,12.0,0.,12.0,0.,12.0
1979-08-01 13:13:16.390 ,7,1,0.,12.0,0.,12.0,0.,12.0,0.,12.0
1979-08-01 13:13:28.390 ,7,1,0.,12.0,0.,12.0,0.,12.0,0.,12.0
1979-08-01 13:13:40.390 ,3,1,,0,,0,,0,,0
1979-08-01 13:13:52.390 ,3,1,0.,12.0,0.,12.0,0.,12.0,0.,12.0
1979-08-01 13:14:04.390 ,0,1,0.,12.0,0.,12.0,0.,12.0,0.,12.0
1979-08-01 13:14:16.390 ,0,1,0.,12.0,0.,12.0,0.,12.0,0.,12.0
1979-08-01 13:14:28.390 ,4,1,0.,12.0,0.,12.0,0.,12.0,0.,12.0
1979-08-01 13:14:40.390 ,4,1,0.,12.0,0.,12.0,0.,12.0,0.,12.0
1979-08-01 13:14:52.390 ,7,1,0.,12.0,0.,12.0,0.,12.0,0.,12.0
1979-08-01 13:15:04.390 ,7,1,0.,12.0,0.,12.0,0.,12.0,0.,12.0
1979-08-01 13:15:16.390 ,3,1,0.,12.0,0.,12.0,0.,12.0,0.,12.0
1979-08-01 13:15:28.390 ,3,1,0.,12.0,0.,12.0,0.,12.0,0.,12.0
1979-08-01 13:15:40.390 ,0,1,0.,12.0,0.,12.0,0.,12.0,0.,12.0
1979-08-01 13:15:52.390 ,0,1,0.,12.0,0.,12.0,0.,12.0,0.,12.0
1979-08-01 13:16:04.390 ,4,1,0.,12.0,0.,12.0,0.,12.0,0.,12.0
1979-08-01 13:16:16.390 ,4,1,0.,12.0,0.,12.0,0.,12.0,0.,12.0
1979-08-01 13:16:28.390 ,7,1,0.,12.0,0.,12.0,0.,12.0,0.,12.0
1979-08-01 13:16:40.390 ,7,1,0.,12.0,0.,12.0,0.,12.0,0.,12.0
1979-08-01 13:16:52.390 ,3,1,0.,12.0,0.,12.0,0.,12.0,0.,12.0
1979-08-01 13:17:04.390 ,3,1,0.,12.0,0.,12.0,0.,12.0,0.,12.0
1979-08-01 13:17:16.390 ,0,1,0.,12.0,0.,12.0,0.,12.0,0.,12.0
1979-08-01 13:17:28.390 ,0,1,0.,12.0,0.,12.0,0.,12.0,0.,12.0
1979-08-01 13:17:40.390 ,0,0,0.,12.0,0.,12.0,0.,12.0,0.,12.0
1979-08-01 13:17:52.390 ,0,0,0.,12.0,0.,12.0,0.,12.0,0.,12.0
1979-08-01 13:18:04.390 ,0,0,0.,12.0,0.,12.0,0.,12.0,0.,12.0
1979-08-01 13:18:16.390 ,0,0,0.,12.0,0.,12.0,0.,12.0,0.,12.0
1979-08-01 13:18:28.390 ,5,0,0.,12.0,0.,12.0,0.,12.0,0.,12.0
1979-08-01 13:18:40.390 ,5,0,0.,12.0,0.,12.0,0.,12.0,0.,12.0
1979-08-01 13:18:52.390 ,5,0,0.,12.0,0.,12.0,0.,12.0,0.,12.0
1979-08-01 13:19:04.390 ,5,0,0.,12.0,0.,12.0,0.,12.0,0.,12.0
1979-08-01 13:19:16.390 ,4,0,0.,12.0,0.,12.0,0.,12.0,0.,12.0
1979-08-01 13:19:28.390 ,4,0,0.,12.0,0.,12.0,0.,12.0,0.,12.0
1979-08-01 13:19:40.390 ,4,0,0.,12.0,0.,12.0,0.,12.0,0.,12.0
1979-08-01 13:19:52.390 ,4,0,0.,12.0,0.,12.0,0.,12.0,0.,12.0
1979-08-01 13:20:04.390 ,3,0,0.,12.0,0.,12.0,0.,12.0,0.,12.0
1979-08-01 13:20:16.390 ,3,0,0.,12.0,0.,12.0,0.,12.0,0.,12.0
1979-08-01 13:20:28.390 ,3,0,0.,12.0,0.,12.0,0.,12.0,0.,12.0
1979-08-01 13:20:40.390 ,3,0,0.,12.0,0.,12.0,0.,12.0,0.,12.0
1979-08-01 13:20:52.390 ,2,0,0.,12.0,0.,12.0,0.,12.0,0.,12.0
1979-08-01 13:21:04.390 ,2,0,0.,12.0,0.,12.0,0.,12.0,0.,12.0
1979-08-01 13:21:16.390 ,2,0,0.,12.0,0.,12.0,0.,12.0,0.,12.0
1979-08-01 13:21:28.390 ,2,0,0.,12.0,0.,12.0,0.,12.0,0.,12.0
1979-08-01 13:21:40.390 ,1,0,0.,12.0,0.,12.0,0.,12.0,0.,12.0
1979-08-01 13:21:52.390 ,1,0,0.,12.0,0.,12.0,0.,12.0,0.,12.0
1979-08-01 13:22:04.390 ,1,0,0.,12.0,0.,12.0,0.,12.0,0.,12.0
1979-08-01 13:22:16.390 ,1,0,0.,12.0,0.,12.0,0.,12.0,0.,12.0
1979-08-01 13:22:28.390 ,0,0,0.,12.0,0.,12.0,0.,12.0,0.,12.0
1979-08-01 13:22:40.390 ,0,0,0.,12.0,0.,12.0,0.,12.0,0.,12.0
1979-08-01 13:22:52.390 ,0,0,0.,12.0,0.,12.0,0.,12.0,0.,12.0
1979-08-01 13:23:04.390 ,0,0,0.,12.0,0.,12.0,0.,12.0,0.,12.0
1979-08-01 13:24:04.390 ,0,0,0.,12.0,0.,12.0,0.,12.0,0.,12.0
1979-08-01 13:24:16.390 ,0,0,0.,12.0,0.,12.0,0.,12.0,0.,12.0
1979-08-01 13:24:28.390 ,0,0,1.,12.0,0.,12.0,0.,12.0,0.,12.0
1979-08-01 13:24:40.390 ,0,0,0.,12.0,0.,12.0,0.,12.0,0.,12.0
1979-08-01 13:24:52.390 ,2,0,0.,12.0,0.,12.0,0.,12.0,0.,12.0
1979-08-01 13:25:04.390 ,2,0,0.,12.0,0.,12.0,0.,12.0,0.,12.0
1979-08-01 13:25:16.390 ,2,0,0.,12.0,0.,12.0,0.,12.0,0.,12.0
1979-08-01 13:25:28.390 ,2,0,0.,12.0,0.,12.0,0.,12.0,0.,12.0
1979-08-01 13:25:40.390 ,3,0,0.,12.0,0.,12.0,0.,12.0,0.,12.0
1979-08-01 13:25:52.390 ,3,0,0.,12.0,0.,12.0,0.,12.0,0.,12.0
1979-08-01 13:26:04.390 ,3,0,0.,12.0,0.,12.0,0.,12.0,0.,12.0
1979-08-01 13:26:16.390 ,3,0,0.,12.0,0.,12.0,0.,12.0,0.,12.0
1979-08-01 13:26:28.390 ,4,0,0.,12.0,0.,12.0,0.,12.0,0.,12.0
1979-08-01 13:26:40.390 ,4,0,0.,12.0,0.,12.0,0.,12.0,0.,12.0
1979-08-01 13:26:52.390 ,4,0,0.,12.0,0.,12.0,0.,12.0,0.,12.0
1979-08-01 13:27:04.390 ,4,0,0.,12.0,0.,12.0,0.,12.0,0.,12.0
1979-08-01 13:27:16.390 ,5,0,0.,12.0,0.,12.0,0.,12.0,0.,12.0
1979-08-01 13:27:28.390 ,5,0,0.,12.0,0.,12.0,0.,12.0,0.,12.0
1979-08-01 13:27:40.390 ,5,0,0.,12.0,0.,12.0,0.,12.0,0.,12.0
1979-08-01 13:27:52.390 ,5,0,0.,12.0,0.,12.0,0.,12.0,0.,12.0
1979-08-01 13:28:04.390 ,6,0,0.,12.0,0.,12.0,0.,12.0,0.,12.0
1979-08-01 13:28:16.390 ,6,0,0.,12.0,0.,12.0,0.,12.0,0.,12.0
1979-08-01 13:28:28.390 ,6,0,0.,12.0,0.,12.0,0.,12.0,0.,12.0
1979-08-01 13:28:40.390 ,6,0,0.,12.0,0.,12.0,0.,12.0,0.,12.0
1979-08-01 13:28:52.390 ,7,0,0.,12.0,0.,12.0,0.,12.0,0.,12.0
1979-08-01 13:29:04.390 ,7,0,0.,12.0,0.,12.0,0.,12.0,0.,12.0
1979-08-01 13:29:16.390 ,7,0,0.,12.0,0.,12.0,0.,12.0,0.,12.0
1979-08-01 13:29:28.390 ,7,0,0.,12.0,0.,12.0,0.,12.0,0.,12.0
1979-08-01 13:29:40.390 ,7,0,0.,12.0,0.,12.0,0.,12.0,0.,12.0
1979-08-01 13:29:52.390 ,7,0,0.,12.0,0.,12.0,0.,12.0,0.,12.0
1979-08-01 13:30:04.390 ,7,0,0.,12.0,0.,12.0,0.,12.0,0.,12.0
1979-08-01 13:30:16.390 ,7,0,0.,12.0,0.,12.0,0.,12.0,0.,12.0
1979-08-01 13:30:28.390 ,6,0,0.,12.0,0.,12.0,0.,12.0,0.,12.0
1979-08-01 13:30:40.390 ,6,0,0.,12.0,0.,12.0,0.,12.0,0.,12.0
1979-08-01 13:30:52.390 ,6,0,0.,12.0,0.,12.0,0.,12.0,0.,12.0
1979-08-01 13:31:04.390 ,6,0,0.,12.0,0.,12.0,0.,12.0,0.,12.0
1979-08-01 13:31:16.390 ,5,0,0.,12.0,0.,12.0,0.,12.0,0.,12.0
1979-08-01 13:31:28.390 ,5,0,0.,12.0,0.,12.0,0.,12.0,0.,12.0
1979-08-01 13:31:40.390 ,5,0,0.,12.0,0.,12.0,0.,12.0,0.,12.0
1979-08-01 13:31:52.390 ,5,0,0.,12.0,0.,12.0,0.,12.0,0.,12.0
1979-08-01 13:32:04.390 ,4,0,0.,12.0,0.,12.0,0.,12.0,0.,12.0
1979-08-01 13:32:16.390 ,4,0,0.,12.0,0.,12.0,0.,12.0,0.,12.0
1979-08-01 13:32:28.390 ,4,0,0.,12.0,0.,12.0,0.,12.0,0.,12.0
1979-08-01 13:32:40.390 ,4,0,0.,12.0,0.,12.0,0.,12.0,0.,12.0
1979-08-01 13:32:52.390 ,3,0,0.,12.0,0.,12.0,0.,12.0,0.,12.0
1979-08-01 13:33:04.390 ,3,0,0.,12.0,0.,12.0,0.,12.0,0.,12.0
1979-08-01 13:33:16.390 ,3,0,0.,12.0,0.,12.0,0.,12.0,0.,12.0
1979-08-01 13:33:28.390 ,3,0,0.,12.0,0.,12.0,0.,12.0,0.,12.0
1979-08-01 13:33:40.390 ,2,0,0.,12.0,0.,12.0,0.,12.0,0.,12.0
1979-08-01 13:33:52.390 ,2,0,0.,12.0,0.,12.0,0.,12.0,0.,12.0
1979-08-01 13:34:04.390 ,2,0,0.,12.0,0.,12.0,0.,12.0,0.,12.0
1979-08-01 13:34:16.390 ,2,0,0.,12.0,0.,12.0,0.,12.0,0.,12.0
1979-08-01 13:34:28.390 ,1,0,0.,12.0,0.,12.0,0.,12.0,0.,12.0
1979-08-01 13:34:40.390 ,1,0,0.,12.0,0.,12.0,0.,12.0,0.,12.0
1979-08-01 13:34:52.390 ,1,0,0.,12.0,0.,12.0,0.,12.0,0.,12.0
1979-08-01 13:35:04.390 ,1,0,0.,12.0,0.,12.0,0.,12.0,0.,12.0
1979-08-01 13:35:16.390 ,0,0,0.,12.0,0.,12.0,0.,12.0,0.,12.0
1979-08-01 13:35:28.390 ,0,0,0.,12.0,0.,12.0,0.,12.0,0.,12.0
1979-08-01 13:35:40.390 ,0,0,0.,12.0,0.,12.0,0.,12.0,0.,12.0